Regional Weather Roundup
Issued by NWS Charleston, SC

Current Version | Previous Version | Graphics & Text | Print | Product List | Glossary On
Versions: 1 2 3 4 5 6 7 8 9 10 11 12 13 14 15 16 17 18 19 20 21 22 23 24 25 26 27 28 29 30 31 32 33 34 35 36 37 38 39 40 41 42 43 44 45 46 47 48 49 50
000 ASUS42 KCHS 220527 RWRCHS REGIONAL WEATHER ROUNDUP NATIONAL WEATHER SERVICE CHARLESTON SC 100 AM EDT SUN OCT 22 2017 NOTE: "FAIR" INDICATES FEW OR NO CLOUDS BELOW 12,000 FEET WITH NO SIGNIFICANT WEATHER AND/OR OBSTRUCTIONS TO VISIBILITY. NOT ALL STATIONS ARE QUALITY CONTROLLED. USE DATA WITH CAUTION... ESPECIALLY DEWPOINT OBSERVATIONS. SCZ027-030-031-034>040-042>050-220600- ...SOUTHEAST SOUTH CAROLINA... CITY SKY/WX TMP DP RH WIND PRES REMARKS N CHARLESTON PTCLDY 67 65 93 NE7 30.27F WATERFRONT PRK N/A 72 68 87 NE10 30.12 JOHNS ISLAND FAIR 72 68 88 NE9 30.26F PINOPOLIS N/A 68 66 94 E5 30.20F MONCKS CORNER FAIR 63 63 100 E5 30.28F SUMMERVILLE FAIR 61 61 100 CALM 30.28F BEAUFORT MCAS CLOUDY 71 68 90 MISG 30.26F BEAUFORT ARPT FAIR 70 68 94 E8 30.24F HILTON HEAD IS MOCLDY 73 70 88 VRB7 30.25S WALTERBORO CLOUDY 64 63 94 E6 30.27F ALLENDALE N/A 68 64 88 CALM N/A ...SOUTHERN MIDLANDS AND PEE DEE... CITY SKY/WX TMP DP RH WIND PRES REMARKS GEORGETOWN FAIR 61 61 100 CALM 30.29F KINGSTREE FAIR 57 55 94 CALM 30.30S ORANGEBURG MOCLDY 61 58 90 CALM 30.29F BARNWELL N/A 64 63 94 CALM 30.28S AIKEN FAIR 57 54 88 CALM 30.33R MANNING FAIR 61 59 94 MISG 30.29F COLUMBIA MOCLDY 61 58 90 CALM 30.29F SUMTER PTCLDY 58 54 85 CALM 30.28F FLORENCE PTCLDY 58 58 100 CALM 30.31F MYRTLE BEACH CLOUDY 71 65 81 E9 30.30F N MYRTLE BEACH CLOUDY 64 63 96 NE6 30.30F $$ GAZ063-065-086>088-099>101-113>116-118-119-134>141-150-220600- ...SOUTHEAST GEORGIA... CITY SKY/WX TMP DP RH WIND PRES REMARKS SAVANNAH ARPT CLOUDY 69 67 93 NE6 30.25F HUNTER AAF CLOUDY 70 67 90 NE5 30.22S FORT STEWART CLOUDY 67 65 91 NE5 30.22F STATESBORO CLOUDY 67 61 80 CALM 30.25F SYLVANIA CLOUDY 66 65 97 E3 30.27S CLAXTON FAIR 64 64 97 CALM 30.24F ...CSRA...CENTRAL AND FAR SOUTHEAST GEORGIA... CITY SKY/WX TMP DP RH WIND PRES REMARKS THOMSON CLOUDY 58 53 82 SE5 30.32F AUGUSTA-BUSH PTCLDY 59 54 83 CALM 30.27F AUGUSTA-DANIEL CLOUDY 68 56 65 E3 30.29F SWAINSBORO FAIR 64 64 100 MISG 30.26F VIDALIA PTCLDY 68 64 88 E6 30.24F EASTMAN FAIR 68 59 73 SE3 30.26S HAZLEHURST FAIR 69 61 76 E6 30.23S ALMA PTCLDY 69 66 90 E3 30.23S WAYCROSS MOCLDY 68 65 90 NE3 30.22S JESUP NOT AVBL BAXLEY FAIR 64 64 100 E3 30.22F BRUNSWICK MOCLDY 68 64 88 CALM 30.22F SAINT SIMONS CLOUDY 76 71 85 E8 30.21F $$ SCZ027-028-034-036>038-045-046-048>050-GAZ119-141-220600- ...LAKE AND SUPPLEMENTAL COASTAL OBSERVATIONS... STATION/POSITION TIME TEMP WIND PRES WAVE SWELL AIR SEA DIR/SP/G HT/PER HT/PER/DIR (UTC) (F) (DEG/KT/KT) (MB) (FT/S) (FT/S/D) WINYAH BAY 0445 73 80/ 9 1026.0S LAKE MURRAY 0520 67 90/ 3/ 4 1025.1 ACE BASIN NERRS 0445 69 40/ 3 1025.0S FORT PULASKI 0500 74 73 60/ 11/ 14 1024.3 SAPELO ISLAND NOT AVBL $$ ANZ835-935-AMZ111-154-330-350-352-354-370-450-454-472-220600- ...C-MAN AND BUOY OBSERVATIONS... STATION/POSITION TIME TEMP WIND PRES WAVE SWELL AIR SEA DIR/SP/G HT/PER HT/PER/DIR (UTC) (F) (DEG/KT/KT) (MB) (FT/S) (FT/S/D) BUOY 41004 0510 78 79 90/ 12/ 17 1024.2 BUOY 41008 0450 78 77 110/ 14/ 17 1023.0F 4/ 9 2/110/ 9 FOLLY BEACH CMAN 0500 73 50/ 12/ 14 1025.3F CAPERS NEARSHORE 0508 71 73 80/ 10/ 16 1024.6F FRIPP NEARSHORE 0508 76 90/ 10/ 14 N/A STATION/POSITION TIME TEMP WIND PRES WAVE SWELL AIR SEA DIR/SP/G HT/PER HT/PER/DIR (UTC) (F) (DEG/KT/KT) (MB) (FT/S) (FT/S/D) 5E ST. MARYS GA 0500 76 N/A 5/ 6 FRYING PAN BUOY 0510 76 76 70/ 10/ 12 1025.3 BUOY 41025 0450 75 81 80/ 8/ 10 1026.5F 3/ 8 3/120/ 8 CAPE LOOKOUT NC 0500 73 50/ 9/ 10 1026.3F BUOY 41002 0450 76 80 90/ 12/ 14 1025.4F 4/ 8 3/ 80/ 8 BUOY 41010 NOT AVBL ST AUGUSTINE FL 0500 73 78 80/ 4/ 4 1022.3F $$

USA.gov is the U.S. government's official web portal to all federal, state and local government web resources and services.